Wind_Speed
41 41 42 45 48 50 50 49 48 47 49 50 51 51 52 53 55 57 58 59 59 59 59 60 60 61 61 61 61 61 60 58 56 54 53 54 54 54 52 52 54 54 52 50 48 46 44 43 43 43 43 43 43 43 42 41 39 37 37 39 39 39 37 35 32 30 28 26 24 23 21 20 20 20 20 20 20 20 21 21 21 20 19 17 17 17
42 43 43 43 45 48 51 52 51 50 50 51 52 52 52 52 53 55 57 59 59 59 59 60 61 61 62 62 62 61 60 58 56 54 53 54 55 55 54 55 56 55 53 51 49 47 45 43 43 43 43 43 43 43 42 41 39 38 38 39 39 38 37 35 33 31 29 27 25 23 20 19 19 19 20 20 21 21 21 21 21 20 18 17 17 17
44 46 48 47 47 48 50 52 53 54 53 52 53 53 53 52 53 54 56 58 59 60 60 61 61 62 62 61 61 60 59 58 56 55 53 53 54 56 57 57 57 55 53 51 50 48 45 44 44 44 43 43 43 43 42 42 40 38 38 39 39 38 37 35 33 31 29 27 25 22 20 18 18 19 19 20 21 21 21 21 20 19 17 16 17 18
44 47 51 51 50 49 51 51 53 54 54 54 53 54 54 54 54 54 56 57 59 60 61 61 62 63 63 62 60 59 58 57 57 56 55 53 53 55 58 59 58 56 54 52 50 48 46 45 44 44 44 43 43 43 43 42 40 39 39 39 38 37 36 35 33 31 29 27 25 22 20 18 18 18 19 20 21 21 21 21 20 18 17 17 17 18
44 47 52 53 52 51 51 51 52 53 54 54 53 53 53 54 55 55 56 57 58 60 61 62 62 63 64 63 61 59 58 58 59 59 58 55 54 56 59 60 59 56 54 52 51 49 47 46 45 45 44 44 43 43 43 42 41 39 39 38 38 37 36 35 33 31 29 27 24 22 19 18 18 18 20 21 21 21 21 21 19 18 17 17 18 18
44 47 52 54 52 50 49 50 51 52 52 52 51 50 51 52 54 55 56 56 58 59 61 62 63 63 64 63 61 59 58 59 62 63 61 57 55 57 60 61 58 55 53 51 50 49 47 46 46 46 45 44 44 43 43 42 41 40 39 38 37 36 36 34 33 31 29 27 25 22 20 18 18 19 20 21 22 21 21 20 19 18 17 18 19 19
43 45 49 51 50 48 45 46 48 49 49 49 47 47 48 50 53 55 57 57 58 58 60 61 62 63 63 63 61 60 59 61 64 65 63 58 56 58 62 60 56 52 51 51 50 49 47 47 47 47 46 45 45 44 43 43 41 40 40 39 37 36 35 34 32 30 28 27 25 23 20 19 18 19 21 22 22 21 21 20 19 18 18 19 20 20
43 43 43 45 45 44 43 43 44 45 46 45 44 44 47 50 53 56 58 59 59 58 59 60 61 62 62 62 61 60 61 63 66 66 63 58 57 59 61 57 53 50 51 51 51 49 47 48 48 48 47 47 46 44 43 43 42 41 40 39 37 36 35 34 32 30 29 27 26 23 21 19 18 19 21 22 22 21 21 19 18 18 19 20 20 20
45 44 43 44 44 44 43 43 44 45 45 46 46 47 48 50 54 57 59 60 60 59 58 59 60 61 62 62 61 61 62 65 66 66 62 58 58 59 59 55 50 49 51 52 51 49 48 48 49 49 49 48 46 45 44 43 42 42 41 39 38 36 35 34 33 31 29 28 26 24 21 19 19 19 21 22 22 22 20 19 18 19 20 21 21 21
48 47 47 47 48 47 47 47 48 49 49 51 52 53 52 52 55 58 61 62 62 61 60 59 59 60 61 61 62 62 63 65 66 65 62 59 58 59 58 54 50 49 50 52 51 50 49 49 50 50 50 49 47 46 44 44 43 43 42 40 38 37 36 35 34 32 31 29 27 24 22 19 19 20 21 22 22 22 20 19 19 20 21 22 22 21
49 49 48 48 49 50 51 52 52 53 53 53 54 55 54 55 57 59 61 63 64 64 63 62 61 61 61 61 62 62 63 64 65 64 62 59 57 57 56 52 49 49 50 52 52 51 50 50 51 51 51 50 48 46 45 44 44 44 43 41 39 38 37 36 35 34 32 30 27 24 21 20 19 20 21 22 22 21 20 19 20 21 23 23 23 22
48 48 47 46 46 47 50 51 51 51 51 50 50 51 54 57 59 60 61 63 65 66 65 64 63 62 62 62 63 63 63 64 64 63 61 59 57 56 54 51 50 49 50 52 53 53 51 51 52 52 52 51 49 47 46 45 45 45 44 42 40 39 38 37 36 35 33 30 27 24 21 20 20 21 22 22 22 21 20 20 21 23 24 24 24 23
49 47 46 45 45 46 48 49 48 47 47 47 47 49 53 56 59 61 62 63 65 67 67 66 65 64 64 64 64 64 64 65 65 64 62 60 58 57 54 52 51 51 51 53 55 55 54 53 53 53 53 52 51 49 47 47 47 47 46 44 42 40 39 39 38 37 34 31 27 24 22 21 21 21 22 22 22 21 20 20 22 24 26 26 25 24
48 47 45 44 45 47 48 50 49 47 46 46 47 49 53 56 58 60 60 61 63 65 66 65 64 65 65 65 65 65 65 65 65 64 62 61 60 58 56 54 53 53 52 54 56 57 56 55 54 54 54 53 52 50 49 49 49 49 48 46 43 41 40 41 41 39 36 33 29 25 23 22 22 22 22 22 22 21 21 21 23 26 27 27 26 26
46 46 44 43 44 46 46 48 49 50 49 49 48 49 52 55 59 60 59 58 59 60 61 61 62 64 65 65 66 66 65 65 65 64 63 62 61 59 57 56 54 53 53 54 56 58 57 56 56 55 55 54 54 52 51 50 51 50 49 47 45 43 42 42 43 41 38 36 32 28 25 24 23 23 23 22 22 21 21 22 25 27 28 28 27 27
45 45 46 47 47 46 46 46 48 49 50 50 49 50 51 55 58 60 59 57 56 56 55 55 57 59 62 64 65 65 65 65 65 64 63 62 61 60 58 57 56 54 53 54 56 57 57 57 57 56 56 56 55 54 53 52 52 52 51 48 46 44 42 43 43 42 39 37 35 31 27 25 24 24 23 22 22 21 22 23 26 28 29 29 28 27
45 45 46 47 47 47 47 47 47 48 48 48 49 51 53 54 56 57 57 58 56 55 54 53 52 53 55 60 63 64 65 64 64 63 62 62 62 60 59 58 57 55 54 54 55 57 58 58 58 58 57 57 56 55 54 53 53 53 51 49 46 44 42 42 42 40 38 36 33 30 27 26 25 24 24 22 22 22 23 25 27 29 30 30 29 28
45 45 45 46 46 46 46 47 48 48 46 47 49 51 53 53 53 53 54 56 56 55 55 54 53 51 51 54 59 63 64 63 63 62 61 61 61 61 59 59 57 55 54 54 55 56 57 58 59 59 58 57 56 55 54 54 53 53 51 48 46 44 42 40 39 37 34 32 30 28 27 27 26 25 24 22 22 22 24 26 29 30 31 31 30 29
44 46 45 44 45 45 46 47 49 49 47 47 48 48 48 51 52 52 52 54 56 57 57 56 55 55 54 54 58 62 63 62 62 60 59 59 60 60 59 59 57 55 54 54 55 56 57 59 59 60 59 58 57 55 55 54 53 53 51 48 46 44 41 39 36 34 31 30 29 29 29 29 28 26 25 23 23 23 25 27 30 31 32 32 31 30
45 47 47 45 45 45 47 48 50 52 52 50 49 48 47 49 51 53 53 55 56 58 59 59 58 58 57 57 59 62 62 61 60 59 58 58 58 59 59 59 57 55 54 54 55 56 57 58 59 60 59 58 57 56 55 54 54 53 51 49 47 44 41 38 35 33 32 32 32 32 32 31 29 27 26 24 24 24 26 28 30 32 33 33 32 32
45 48 50 47 45 45 46 49 52 54 54 52 50 49 48 49 51 52 52 54 57 58 59 59 60 61 60 58 59 61 62 60 59 58 57 57 57 58 59 59 58 56 55 55 55 56 57 58 59 60 60 59 58 56 56 55 54 53 52 50 47 44 41 38 36 35 35 35 35 34 33 32 30 28 27 25 25 25 26 28 30 32 33 34 33 33
45 47 51 51 49 47 47 50 53 56 56 53 52 51 50 50 49 50 52 55 57 58 60 60 61 61 61 60 61 62 62 60 59 58 57 54 55 57 59 59 58 56 55 55 56 56 57 58 59 60 60 60 58 57 56 55 55 54 53 51 48 45 41 39 38 37 37 36 36 35 34 32 31 29 27 26 26 26 27 29 30 31 33 33 34 33
46 48 51 53 52 50 49 51 55 57 57 55 55 54 52 53 52 52 54 56 58 60 61 62 61 60 58 58 60 61 61 60 59 58 56 54 54 57 59 59 57 56 56 56 56 56 57 58 59 60 60 60 59 58 57 56 56 55 54 52 49 45 42 40 39 39 38 37 36 35 34 32 31 29 28 27 27 28 28 29 30 31 33 33 33 32
48 48 49 51 52 51 51 52 55 57 57 56 55 54 52 54 55 56 58 59 61 62 61 59 57 55 53 54 55 57 59 59 58 57 56 55 55 57 59 59 57 56 56 56 56 56 57 58 59 60 61 61 61 60 58 57 56 56 55 54 51 46 43 41 41 40 39 37 36 35 34 32 31 30 29 28 28 29 30 30 31 32 33 33 32 30
48 47 47 48 49 49 50 52 55 56 56 55 54 53 54 54 56 57 58 59 60 60 59 56 53 51 50 51 52 55 57 59 58 57 56 55 55 57 59 59 58 56 56 56 56 56 56 58 59 60 62 62 62 61 59 58 57 56 56 55 52 48 44 43 42 41 40 38 37 35 33 32 31 30 30 29 30 30 31 32 32 33 33 32 31 29
48 47 46 47 47 47 48 50 53 55 55 54 53 52 52 53 55 56 56 56 57 58 56 54 52 52 53 53 54 55 57 59 58 58 57 55 54 56 58 59 58 57 57 57 56 56 56 58 59 61 63 63 63 62 60 58 57 57 57 57 53 49 45 44 43 42 41 39 37 35 33 32 32 31 30 30 31 32 33 33 34 34 33 31 29 27
47 46 47 48 48 47 47 48 50 52 53 52 50 49 50 52 54 54 54 56 57 57 56 54 53 53 54 54 55 57 58 58 58 58 58 56 55 55 57 58 58 57 57 57 56 56 57 58 60 62 63 64 64 63 61 59 58 57 57 57 54 49 46 45 44 44 42 40 37 35 33 32 32 32 31 32 33 34 34 35 35 34 33 30 28 27
46 44 46 49 50 49 47 47 49 50 51 50 49 47 48 51 53 53 53 55 56 57 56 55 53 52 53 54 56 57 58 58 59 59 59 57 55 55 57 58 58 58 57 57 57 56 57 58 60 62 64 64 64 63 62 60 59 58 58 57 54 50 46 45 45 44 43 41 38 35 33 33 32 32 33 33 34 35 36 37 36 34 32 29 28 27
44 41 43 47 50 50 49 48 49 50 51 51 50 48 48 50 52 52 52 53 54 55 56 55 54 53 53 54 55 55 55 57 59 60 60 58 56 56 58 58 58 58 58 57 57 56 57 58 60 62 64 65 65 64 62 61 60 59 59 57 54 50 47 46 46 45 43 40 37 34 34 33 33 34 34 35 36 37 38 38 36 34 31 29 28 28
43 39 39 41 46 49 50 51 51 52 52 53 53 52 51 50 51 52 51 51 52 54 54 54 54 54 53 52 50 48 50 54 58 60 60 57 56 56 57 57 58 59 59 58 55 54 55 58 61 62 64 64 65 64 63 61 61 60 59 57 53 49 47 46 46 44 42 39 37 35 34 34 35 35 36 37 38 39 39 38 36 34 31 30 29 29
45 41 38 37 39 44 50 54 55 54 54 56 57 56 55 53 52 52 52 52 53 52 51 52 52 53 54 50 44 42 45 53 58 60 60 58 57 56 57 57 58 59 59 58 53 49 49 55 59 62 63 63 64 64 63 62 61 61 60 57 52 48 46 46 45 44 42 39 37 36 36 36 37 37 38 39 39 40 40 38 36 34 32 31 31 30
47 44 41 37 37 40 48 55 58 57 55 56 57 58 57 56 55 55 56 57 57 54 50 51 52 53 55 54 50 46 46 53 59 61 61 59 57 57 57 57 57 58 59 58 55 51 46 52 56 59 61 62 62 63 63 62 61 61 59 56 52 48 47 46 46 46 44 42 39 38 38 38 39 39 40 40 41 40 39 38 35 34 33 32 31 30
48 46 43 39 38 39 47 55 60 60 58 57 57 57 57 56 56 57 59 61 61 59 55 53 53 53 55 57 56 53 51 55 60 62 62 60 58 56 56 56 56 57 57 58 57 55 51 53 56 58 59 60 61 62 62 62 61 61 59 56 52 49 48 48 48 48 47 44 42 40 40 40 40 41 41 41 41 40 39 37 35 34 33 33 32 30
48 46 44 40 39 40 47 55 61 63 61 59 58 57 56 56 57 58 61 63 63 62 59 56 55 55 56 56 56 54 52 56 61 64 63 62 60 58 56 55 56 56 57 57 58 57 54 55 57 58 58 59 60 61 61 61 60 59 58 55 52 50 50 50 50 50 48 46 44 43 42 41 41 41 41 41 40 39 38 36 35 34 33 32 31 30
47 45 43 41 39 40 45 54 61 63 62 62 61 59 58 57 58 59 61 62 63 63 62 59 59 60 60 58 57 55 53 56 60 63 63 62 62 61 58 57 57 57 57 58 59 57 53 53 56 59 59 57 58 58 59 59 58 57 55 54 52 51 51 51 51 50 49 46 45 44 43 42 42 42 41 41 40 39 37 36 35 34 33 32 30 29
45 44 43 41 39 40 45 53 60 62 62 63 64 62 61 60 60 60 61 61 61 61 62 62 63 63 63 63 61 59 58 60 62 62 62 62 62 62 60 59 59 59 58 59 60 59 56 53 54 58 60 58 57 57 57 57 56 55 53 52 52 52 52 52 52 51 49 47 46 45 45 44 43 43 42 41 40 38 37 36 35 34 33 32 30 28
42 41 41 40 39 40 46 52 59 63 63 63 64 64 64 63 62 61 61 60 60 61 61 63 64 65 65 65 63 62 62 64 64 63 61 61 62 62 62 61 61 61 60 60 61 61 60 56 53 54 58 59 59 58 57 56 55 54 53 52 53 53 53 53 52 51 50 49 48 47 46 45 45 44 43 41 40 38 37 36 35 34 33 32 31 29
39 39 40 40 39 40 44 49 56 62 64 64 64 65 65 65 64 63 62 61 61 61 61 63 64 66 65 64 62 61 63 64 64 63 61 61 61 62 63 62 61 62 62 62 62 62 62 58 54 53 56 58 60 60 60 58 56 54 54 54 54 54 54 53 52 51 50 49 48 48 47 46 46 45 44 43 41 40 38 38 37 36 35 33 32 31
38 38 38 39 39 40 43 50 57 63 65 66 66 66 66 66 66 65 64 63 62 61 61 62 65 67 66 64 61 60 61 62 63 63 61 61 60 61 62 61 61 62 62 62 62 63 63 61 59 57 57 57 59 60 61 60 58 57 56 56 55 55 55 54 53 52 51 50 50 49 48 47 47 46 45 44 43 42 41 41 39 38 37 36 34 33
36 36 37 39 40 41 43 51 58 63 65 66 66 66 65 66 65 65 64 63 62 61 61 62 65 67 68 65 62 60 60 61 61 61 61 60 60 61 61 61 61 61 61 61 62 63 63 63 63 62 61 60 60 60 60 60 60 60 60 59 58 57 56 55 53 52 51 51 51 50 49 49 48 47 46 45 44 44 43 42 41 40 38 37 36 34
34 35 37 39 41 42 43 49 57 62 64 65 65 64 64 63 63 63 63 62 60 60 60 63 66 67 67 64 62 60 60 60 61 60 60 59 60 60 60 61 60 60 60 61 62 63 63 64 63 62 62 63 64 64 63 62 62 63 63 63 62 61 59 57 55 54 52 52 51 50 50 50 49 48 47 45 44 43 42 42 41 39 37 36 35 34
34 35 36 38 40 41 43 48 54 60 63 64 63 63 63 62 62 61 61 60 59 60 62 65 66 65 63 60 59 59 59 60 60 60 60 59 59 59 60 60 59 58 58 59 61 62 64 64 64 63 63 63 64 64 63 64 64 64 64 65 65 64 61 59 57 55 54 53 51 50 50 50 50 48 47 45 43 42 41 40 39 37 36 34 33 32
33 34 35 37 40 42 43 46 52 57 60 61 61 61 62 62 62 61 60 60 60 61 64 66 66 64 61 57 56 55 56 57 58 59 59 58 58 58 58 58 58 57 57 58 59 61 63 65 65 65 65 65 65 65 64 65 65 65 65 66 66 65 63 62 60 58 55 54 52 51 50 50 49 48 46 44 43 42 41 39 38 36 34 33 32 31
32 32 34 36 40 42 44 47 52 56 58 59 59 60 60 61 61 61 60 60 62 63 65 65 65 63 61 58 55 53 52 53 54 55 56 56 56 56 56 57 57 56 56 57 58 60 62 63 64 65 66 66 66 66 67 67 66 66 66 67 67 67 66 65 63 60 57 55 53 52 51 50 49 47 45 44 42 41 41 39 38 36 34 33 31 30
30 31 33 36 39 42 43 48 53 57 58 59 59 60 60 61 61 60 60 62 63 63 63 63 61 59 58 58 56 54 51 50 49 50 51 51 52 53 54 55 56 57 57 57 58 59 62 63 64 65 65 64 65 66 68 69 68 67 66 66 66 66 66 65 63 61 59 56 54 53 51 49 48 46 45 43 42 42 41 40 38 36 34 33 31 30
26 28 31 35 38 42 46 51 55 57 59 59 59 60 60 60 60 60 62 63 63 63 62 61 59 57 56 56 55 53 51 49 48 47 47 48 49 51 53 55 57 58 58 58 59 60 62 65 67 66 64 62 63 65 68 70 70 68 67 66 65 65 64 62 62 61 59 58 56 54 51 49 46 45 44 43 43 42 41 40 38 36 34 33 31 30
22 23 27 32 37 43 49 53 56 57 58 59 59 59 60 60 60 61 63 64 63 61 59 58 57 56 55 55 54 53 51 50 48 47 47 48 50 52 55 56 57 58 58 59 59 60 62 64 67 68 66 63 63 64 66 69 70 70 69 68 66 65 64 63 61 60 59 58 57 55 52 49 46 45 44 44 43 43 41 40 38 36 34 33 31 30
21 19 21 26 34 44 51 54 56 57 58 58 59 59 60 61 62 63 63 63 62 60 58 56 55 55 55 55 56 56 55 53 51 50 49 50 52 54 56 57 58 58 58 58 59 59 60 61 63 65 66 66 66 66 66 67 68 70 70 70 68 66 64 62 61 60 59 59 57 55 52 50 48 47 46 45 44 43 42 40 38 36 34 33 31 30
20 16 16 19 31 44 51 54 56 57 58 58 59 59 61 63 64 65 64 63 61 59 58 56 56 55 55 56 57 57 57 55 54 52 52 52 54 56 58 58 58 57 56 56 56 57 58 58 59 60 61 64 67 68 69 68 68 68 69 68 67 65 63 62 61 60 60 59 57 55 52 51 49 48 47 47 46 44 42 40 38 36 34 33 31 30
18 15 13 15 24 38 48 54 56 57 58 59 59 60 61 62 64 65 65 63 62 60 59 59 58 57 56 56 56 55 55 54 54 53 53 54 55 57 59 60 59 57 54 53 52 53 54 55 56 57 58 59 62 66 69 69 69 67 66 65 64 63 62 61 61 61 60 59 57 55 53 51 50 49 48 47 47 45 43 41 38 36 34 33 31 30
16 13 10 11 17 28 41 50 55 57 58 59 59 60 60 60 61 62 62 61 60 59 59 59 59 58 57 56 55 54 54 54 53 53 54 55 57 58 60 60 59 57 55 52 50 49 50 50 49 49 51 54 56 60 65 68 69 67 65 64 63 62 62 62 61 61 60 58 57 55 54 52 50 49 48 47 46 45 42 40 38 36 34 32 31 29
Wind_Direction
256 256 255 255 255 256 256 255 254 252 251 249 246 243 240 238 237 238 239 239 238 237 237 237 237 237 236 234 233 233 233 233 231 226 220 217 215 216 217 222 230 236 240 241 240 238 235 232 228 225 224 224 225 226 225 223 220 219 222 227 230 232 232 232 231 230 229 228 227 228 231 236 241 244 247 250 253 256 259 262 266 269 269 264 258 253
257 258 258 256 254 253 252 253 253 252 251 250 248 245 242 239 237 236 236 237 237 237 236 236 236 237 236 235 234 234 233 232 229 223 218 215 215 216 217 223 231 236 239 240 240 238 235 232 228 225 223 223 224 225 224 222 218 218 221 225 228 230 230 229 229 228 227 226 226 227 231 236 241 246 249 252 255 258 260 263 267 268 266 259 253 249
256 258 259 259 256 252 249 250 251 251 251 250 249 248 245 242 238 236 234 234 235 236 236 236 236 237 236 235 235 235 234 231 226 220 215 215 215 216 218 224 231 236 239 240 239 237 235 232 228 224 222 222 223 224 223 221 218 217 219 223 226 228 228 227 227 226 226 226 226 227 231 236 242 247 251 254 257 259 261 264 266 266 261 255 250 246
255 256 258 259 258 254 249 248 249 251 251 250 248 247 246 244 241 238 236 235 235 235 235 235 236 237 237 237 236 235 234 230 223 217 214 215 216 217 220 226 232 237 239 239 238 236 234 231 227 224 222 222 222 223 223 221 217 216 218 222 224 226 226 225 225 224 225 225 226 228 231 237 242 248 252 255 258 260 261 263 264 262 257 250 247 243
252 254 257 258 258 256 251 248 249 251 250 248 245 243 243 243 242 240 238 236 235 234 235 235 236 236 237 237 236 234 232 226 220 215 215 217 218 219 222 228 233 237 238 238 237 235 233 230 227 224 221 221 222 223 223 221 217 216 217 220 223 224 224 224 223 223 224 225 226 229 232 237 242 248 252 256 258 260 261 262 261 258 252 246 243 239
251 253 256 257 257 255 251 249 249 250 248 244 241 239 239 242 243 241 239 237 235 234 234 234 235 235 236 237 236 233 229 223 218 216 218 221 222 222 224 229 233 236 237 236 235 234 232 230 226 223 221 221 222 223 224 221 218 216 216 219 221 222 223 222 222 222 223 225 227 229 232 237 242 248 252 256 258 259 259 260 258 254 247 241 240 236
251 253 255 255 254 252 251 248 247 246 243 241 238 238 239 242 243 243 241 238 235 234 233 233 233 234 234 235 235 232 227 221 218 219 223 226 225 224 226 229 232 234 235 235 234 233 231 229 226 223 221 221 222 223 224 222 219 216 216 218 220 221 221 221 221 221 223 225 227 229 232 236 241 247 252 255 257 258 258 257 255 248 241 236 235 230
250 251 250 249 249 249 250 248 246 243 241 240 240 241 243 244 244 244 242 240 237 234 233 231 231 231 231 232 232 231 226 221 219 221 226 228 227 226 227 230 232 233 234 234 234 233 231 228 226 224 222 221 222 223 224 223 220 217 216 217 219 220 220 220 220 221 222 224 226 229 231 235 240 247 251 254 256 256 256 255 251 243 236 232 230 224
247 248 246 244 244 245 247 248 247 245 244 244 245 247 247 246 245 244 242 240 237 235 233 231 230 229 229 230 230 229 226 222 222 224 228 230 229 228 229 229 230 232 233 233 233 232 230 228 226 224 223 222 222 223 224 223 221 218 216 216 218 219 220 219 219 220 221 223 225 228 230 234 239 245 250 252 254 254 254 252 246 237 230 227 225 219
245 245 244 242 241 242 244 246 248 248 247 247 248 249 249 247 245 243 240 238 237 235 233 232 231 230 230 230 229 228 226 224 224 227 230 232 231 230 229 229 229 230 231 232 232 231 230 228 226 225 223 222 221 222 224 223 221 218 216 216 217 219 219 219 218 219 220 222 224 226 228 232 238 243 248 250 252 252 252 248 240 231 225 223 221 214
243 243 243 241 241 241 243 245 248 249 248 246 247 248 248 246 243 239 237 236 235 235 233 233 232 232 231 230 230 229 227 225 226 228 232 234 233 231 230 229 228 228 230 231 232 231 230 228 227 225 224 222 221 222 223 223 221 218 216 215 217 218 219 218 218 218 220 221 222 224 226 230 236 241 245 248 250 251 250 243 234 226 222 220 217 210
240 241 241 240 240 241 242 243 245 246 244 242 242 242 243 242 239 235 233 233 233 233 232 232 233 233 233 233 232 230 229 227 227 229 232 233 233 231 230 228 227 227 229 230 231 231 231 229 227 226 225 223 222 221 222 222 221 218 216 215 216 217 218 218 218 219 219 219 220 221 224 228 234 239 242 245 248 249 247 238 229 222 219 217 213 207
237 237 238 238 238 239 240 241 241 240 238 237 236 236 236 236 234 232 231 232 233 233 232 232 232 233 235 235 234 233 231 230 230 231 232 232 231 229 227 225 225 225 227 229 230 231 230 229 228 227 226 224 222 221 221 222 221 218 216 215 215 216 217 218 219 219 218 218 218 219 222 227 232 236 240 243 247 247 243 234 224 219 216 214 210 203
236 234 234 235 236 237 238 238 237 235 234 234 235 236 235 234 231 228 227 229 231 232 232 231 230 232 233 234 234 234 233 232 232 232 232 232 231 228 225 223 223 223 225 227 228 229 229 229 229 229 227 225 223 221 221 221 220 219 216 214 214 215 217 218 219 219 219 219 220 221 222 226 230 234 238 242 245 244 239 230 221 216 214 212 208 202
238 232 229 230 233 234 234 234 234 234 235 235 236 236 236 232 229 226 224 224 226 228 229 229 229 230 231 232 233 233 234 233 231 230 230 231 231 229 225 223 222 222 223 225 227 228 228 228 228 228 227 226 224 222 220 220 220 219 216 214 213 214 216 218 220 220 221 223 225 225 225 227 230 232 236 240 242 241 235 227 219 214 212 210 208 203
246 235 230 230 231 232 232 231 230 232 234 235 235 233 230 226 225 224 222 222 223 225 225 225 226 226 228 230 232 232 232 231 230 229 229 229 229 228 225 223 222 222 222 224 226 227 227 228 228 228 227 225 224 222 220 219 219 218 216 213 212 213 216 218 220 221 223 225 227 228 228 230 231 232 235 237 238 236 231 224 218 214 212 211 209 206
257 244 234 230 230 230 229 228 228 229 231 232 231 229 225 222 222 221 221 221 222 224 224 223 222 221 223 226 229 230 230 229 229 228 227 227 227 227 225 223 222 221 222 223 225 227 227 227 227 227 226 225 223 221 220 219 219 218 215 213 212 213 215 218 220 222 223 226 228 230 231 232 233 233 234 235 234 231 226 221 216 213 212 212 212 212
265 253 240 232 227 226 225 224 224 225 226 227 227 227 225 223 222 222 221 221 222 223 224 223 221 220 221 221 224 227 229 227 226 226 225 224 224 225 224 223 222 221 221 223 225 226 227 227 227 227 226 224 223 221 219 218 219 218 216 212 211 212 215 217 219 220 222 224 228 231 235 235 235 234 234 234 232 227 222 218 215 213 213 214 215 216
270 262 248 235 227 224 223 222 222 222 223 224 224 223 222 223 224 224 224 223 223 223 223 222 222 222 222 222 225 227 228 226 225 224 222 221 222 223 223 222 221 221 221 223 225 227 228 228 227 227 226 224 223 220 218 218 219 219 216 212 210 211 214 216 217 218 219 223 228 233 236 236 235 234 234 233 231 226 220 216 214 214 214 215 216 218
272 267 257 243 230 224 222 221 221 222 223 223 222 220 219 221 223 225 226 227 226 226 226 224 224 224 225 225 226 227 227 225 223 221 220 219 220 221 223 222 220 219 221 223 225 227 228 228 227 227 226 224 223 220 218 218 218 218 216 212 211 211 213 214 215 216 218 222 226 231 234 234 233 232 232 232 230 225 219 216 214 214 214 216 217 218
271 268 263 251 237 226 222 221 222 224 226 224 221 219 219 220 221 223 225 227 227 226 226 224 225 226 226 225 226 227 227 224 220 219 219 218 219 220 222 221 220 220 221 223 225 227 228 228 227 226 225 224 222 220 218 217 218 218 216 212 210 211 212 213 214 216 218 221 225 228 231 231 230 229 230 231 229 224 219 216 215 214 214 216 217 219
270 268 265 258 245 232 224 222 225 228 229 225 221 218 219 219 221 222 224 224 224 225 225 225 226 227 227 226 226 227 228 224 221 219 218 216 216 219 221 221 221 220 221 223 225 227 227 228 227 227 226 224 222 220 218 217 218 218 215 212 211 211 212 213 214 216 219 221 224 226 227 226 226 226 227 228 227 223 219 217 215 215 215 216 218 219
271 268 265 260 251 239 228 225 227 230 231 228 225 223 222 223 224 224 225 224 224 225 226 227 227 227 225 224 225 226 227 225 224 222 219 215 214 216 219 220 220 220 221 223 225 226 227 227 227 227 226 224 222 219 218 217 217 217 215 213 211 211 212 213 215 217 220 222 223 223 223 222 222 224 225 226 225 222 219 217 215 215 215 216 217 219
274 269 264 261 254 243 231 226 226 229 230 230 229 228 227 230 232 232 232 229 227 226 226 225 223 221 220 219 220 221 223 224 223 221 218 215 214 215 217 217 217 217 220 222 224 225 226 226 226 226 225 224 221 219 218 217 217 217 216 213 212 212 212 214 216 218 220 221 221 220 219 219 220 222 225 225 224 221 218 216 215 214 214 216 217 217
278 270 263 259 254 244 232 226 226 228 230 231 231 231 232 234 235 235 234 230 226 223 222 219 216 214 215 215 216 218 221 222 221 220 218 216 215 215 216 216 215 215 218 221 223 224 224 224 225 225 224 222 220 218 217 217 217 217 216 215 213 213 213 214 216 219 220 219 218 217 216 218 220 222 224 225 223 221 218 215 214 213 214 215 215 216
280 271 261 256 251 244 234 228 227 229 230 231 231 230 230 230 229 226 222 220 218 216 215 213 212 212 214 215 215 217 219 219 220 220 219 215 213 213 215 215 215 214 216 218 220 222 222 222 223 223 221 220 219 218 217 217 217 217 216 215 214 213 213 215 217 218 218 217 215 214 214 217 219 221 223 224 223 220 217 214 212 212 213 213 213 215
281 271 259 251 248 244 236 229 227 228 230 230 229 228 225 222 218 214 210 212 212 211 209 208 208 210 212 214 215 216 217 217 217 219 220 217 213 211 213 214 214 213 213 215 218 219 220 220 221 222 221 220 219 217 217 216 217 217 216 215 214 214 214 215 217 218 217 217 214 212 213 216 218 220 222 223 222 219 215 212 211 210 211 211 211 213
283 272 259 249 245 242 237 230 225 225 227 227 227 225 222 217 211 207 206 208 209 208 207 207 207 208 210 211 213 215 216 215 216 218 220 217 213 212 213 213 212 211 211 212 215 217 218 218 219 220 220 220 219 218 217 217 217 217 216 216 215 215 215 216 217 217 217 216 213 211 212 215 217 219 221 221 220 216 213 210 209 208 209 209 210 212
283 273 261 250 244 240 237 230 224 223 224 225 224 223 220 216 211 208 207 208 207 207 207 208 208 209 209 211 212 213 213 214 215 218 219 215 212 212 214 212 210 209 209 209 210 212 213 215 216 217 217 219 219 219 218 217 217 217 217 217 217 217 217 217 217 217 215 212 209 209 212 214 216 217 219 219 217 214 210 208 207 207 207 208 210 212
281 273 264 253 245 240 236 229 225 222 223 224 224 223 221 219 217 215 214 212 211 209 208 208 208 209 209 208 207 207 209 213 216 217 217 211 209 211 212 210 208 208 207 206 204 205 208 212 213 214 214 215 217 218 218 217 217 217 218 217 217 217 216 216 216 214 211 207 206 208 211 213 214 216 217 216 214 211 208 207 206 206 207 208 209 211
282 276 269 261 252 244 236 229 224 222 222 224 225 225 223 222 222 222 222 220 218 215 211 209 208 208 208 205 202 202 207 212 215 217 215 209 207 209 210 207 206 208 209 206 202 200 203 207 211 212 212 212 214 216 217 217 217 216 217 217 216 214 213 213 212 210 207 204 205 207 209 211 212 213 214 213 211 209 207 207 207 207 207 207 208 210
283 278 272 267 262 252 239 229 224 221 221 223 225 225 226 225 225 225 226 225 224 220 216 213 210 209 210 209 208 208 211 214 217 218 215 209 207 209 210 207 206 207 210 211 208 204 203 204 207 209 209 209 210 213 216 216 216 216 216 215 213 210 209 208 207 206 204 203 203 205 207 209 210 210 210 209 208 207 207 207 207 207 206 207 208 209
282 277 272 268 265 255 239 228 222 220 219 220 222 223 225 226 226 227 226 226 225 223 218 215 212 210 211 213 214 215 216 218 220 220 216 210 206 207 209 207 206 206 209 211 212 211 209 207 206 206 205 206 208 210 213 215 215 216 216 214 211 207 205 205 204 204 202 201 201 203 204 206 207 207 207 206 206 206 207 207 206 206 206 207 207 209
280 276 271 268 263 252 236 225 220 218 218 218 219 221 221 223 223 223 224 224 224 223 219 215 212 211 210 211 214 216 217 219 221 220 217 210 207 207 208 207 207 207 206 206 207 208 209 209 207 204 202 204 206 208 210 211 212 214 214 212 208 204 203 202 202 202 201 200 200 201 202 203 204 204 204 204 205 205 206 205 205 205 206 206 207 209
277 274 269 266 261 250 234 223 218 216 216 218 219 220 219 218 217 217 218 220 221 222 220 217 215 213 212 211 211 212 213 217 219 219 216 210 208 208 209 208 208 208 206 204 203 203 204 207 207 204 201 200 201 204 206 207 208 210 211 209 206 203 201 201 201 201 201 200 199 199 199 200 200 201 201 202 203 204 204 204 203 204 205 206 207 209
276 273 267 263 258 248 233 221 216 214 215 217 218 219 218 215 214 213 215 217 220 221 221 220 218 217 217 216 215 213 214 217 219 218 216 213 211 210 210 210 211 210 207 205 203 202 202 204 206 205 201 198 197 199 202 203 204 204 205 204 203 201 200 200 199 199 199 199 198 198 197 197 197 198 199 201 202 202 202 202 202 203 204 206 208 210
274 270 264 260 255 246 231 220 214 212 212 214 216 216 216 213 212 213 215 218 220 222 223 222 220 219 219 219 219 219 218 219 220 219 217 216 215 213 212 212 213 212 208 205 204 203 203 202 202 202 200 198 197 196 197 198 199 200 200 200 200 200 200 199 198 198 198 197 196 195 195 195 195 196 197 198 199 200 200 201 202 203 205 207 208 210
272 267 261 256 252 243 229 217 211 210 210 211 212 213 213 212 213 214 217 219 221 222 223 223 221 220 219 219 220 220 220 220 220 220 220 219 218 216 214 214 214 214 212 210 208 206 203 201 199 197 197 198 199 198 197 196 196 197 198 198 199 199 199 198 198 198 197 196 195 194 193 193 194 194 195 195 196 197 198 200 202 204 206 207 209 210
270 264 258 253 248 240 227 215 210 208 209 209 210 211 211 212 214 216 218 220 222 223 223 223 222 221 219 218 218 219 220 221 222 223 223 222 220 218 216 214 214 214 214 213 212 209 206 203 201 199 197 197 197 197 197 196 196 196 197 197 198 199 199 199 198 197 197 196 194 193 192 192 193 193 193 194 194 196 197 199 201 203 205 206 208 209
267 262 257 251 246 239 227 215 209 207 207 208 209 209 209 211 213 216 218 220 222 223 223 224 223 221 219 218 218 219 220 222 224 225 226 225 223 221 218 216 215 214 213 212 212 211 209 207 206 205 203 200 197 196 195 195 196 196 195 194 194 196 199 199 198 197 197 196 194 192 192 192 192 193 194 194 195 196 198 200 201 203 205 206 207 208
268 262 256 251 245 238 227 215 209 207 206 206 205 205 206 207 209 212 216 219 221 222 222 222 220 218 217 217 218 219 221 223 225 226 227 227 226 223 221 218 217 216 214 212 212 212 211 209 207 206 205 203 201 198 196 195 195 195 194 192 193 195 197 198 198 198 197 196 195 194 192 192 192 193 194 195 196 198 200 202 203 204 205 208 209 210
272 264 256 250 243 236 225 213 207 204 204 203 202 202 203 205 206 209 212 214 217 219 219 217 214 212 212 214 216 218 220 222 224 225 226 227 227 225 223 221 219 218 216 214 212 212 212 210 208 207 205 204 201 198 195 194 195 195 195 194 193 193 194 196 197 197 196 196 196 195 193 193 193 193 194 195 197 199 201 203 205 206 207 209 211 213
276 266 257 250 242 234 222 211 203 201 201 200 200 201 203 205 206 208 210 210 212 213 212 211 210 210 210 210 212 214 216 219 221 223 224 225 225 224 223 222 221 221 219 216 213 211 211 210 209 208 208 207 203 198 194 192 192 193 194 195 192 189 188 191 194 196 196 196 196 196 195 194 194 194 195 195 197 199 201 203 205 207 209 211 212 212
279 267 258 250 240 230 217 206 201 199 199 199 200 201 204 206 208 209 209 210 210 209 209 209 210 210 209 209 210 211 212 214 216 218 220 222 222 222 222 222 223 224 223 220 215 211 209 207 207 207 208 207 204 200 196 193 191 191 193 194 193 191 188 189 191 193 194 196 196 196 196 196 195 195 194 195 197 199 201 202 204 206 208 211 212 211
281 267 257 249 236 222 208 201 198 198 199 200 201 202 204 207 208 209 208 208 207 206 206 207 207 206 206 207 208 209 210 211 212 213 215 217 218 219 219 220 222 223 224 223 220 216 210 206 204 205 206 205 203 200 196 193 191 190 191 193 194 193 193 191 190 191 193 194 196 196 197 196 195 194 194 195 197 199 201 201 203 204 206 208 209 209
283 265 255 246 230 213 202 198 197 197 198 199 200 202 204 206 208 208 207 206 204 204 205 205 204 203 202 204 206 207 207 207 207 208 209 210 212 213 214 216 218 219 219 219 219 218 215 210 207 204 202 200 198 197 197 194 191 189 190 192 193 193 192 190 190 190 192 193 195 196 196 196 195 194 193 194 196 198 199 200 202 204 205 207 208 208
288 265 251 240 223 207 198 195 195 196 196 197 199 201 203 204 205 204 204 204 203 203 203 204 204 204 204 205 205 205 204 203 203 204 204 204 205 206 207 209 211 213 213 212 211 210 211 210 209 206 202 196 192 191 193 193 191 190 189 190 191 191 190 189 189 190 192 193 194 195 195 194 193 193 194 194 195 195 196 198 200 203 205 206 207 207
295 270 248 232 213 199 192 192 193 194 194 195 197 199 201 202 201 201 200 201 202 203 203 204 204 206 207 208 208 207 205 204 203 202 201 201 201 201 202 203 205 205 206 205 204 203 202 203 203 204 203 199 194 191 190 190 189 189 189 189 190 189 189 189 190 190 192 193 194 194 193 193 192 193 193 194 194 193 194 196 198 201 204 205 206 206
302 277 247 224 202 192 188 189 191 192 192 193 194 195 197 200 201 200 200 202 203 204 205 205 205 205 205 206 206 206 205 204 203 201 200 199 199 199 199 200 200 200 200 199 199 198 197 196 196 197 199 199 197 194 191 189 189 188 188 188 188 188 189 189 190 191 192 193 194 194 193 193 193 193 193 193 192 192 193 195 197 200 202 204 204 205
309 285 247 222 198 189 185 186 188 189 190 191 192 193 194 197 200 202 203 204 205 206 207 206 205 203 201 201 201 201 200 200 199 198 198 198 198 197 197 198 198 196 193 192 191 190 189 188 189 191 193 195 195 193 190 188 187 187 187 187 188 188 189 190 191 192 193 193 193 193 193 193 193 194 194 193 192 192 193 194 197 199 201 202 203 203
319 297 256 224 200 189 184 184 185 187 189 190 191 192 193 194 197 200 202 203 204 204 204 204 202 200 198 197 197 196 196 196 195 194 194 196 196 195 195 196 195 192 188 184 182 180 180 179 180 183 187 189 191 191 189 187 185 185 185 186 187 188 190 191 192 192 192 193 193 193 193 193 192 193 193 193 193 192 193 194 196 198 200 201 202 203
Height
1400 1400 1401 1403 1404 1404 1404 1405 1407 1408 1407 1407 1407 1408 1407 1407 1407 1407 1408 1409 1410 1412 1413 1413 1414 1416 1418 1419 1421 1423 1425 1427 1429 1431 1433 1435 1438 1442 1446 1446 1446 1447 1450 1452 1454 1456 1458 1459 1460 1462 1463 1465 1466 1468 1469 1471 1473 1474 1475 1476 1477 1478 1478 1479 1480 1481 1482 1483 1483 1484 1485 1486 1487 1488 1488 1489 1489 1489 1489 1490 1490 1490 1490 1490 1490 1490
1396 1396 1397 1398 1400 1400 1399 1400 1402 1403 1403 1403 1404 1404 1405 1405 1404 1404 1405 1406 1407 1408 1409 1410 1411 1412 1413 1415 1417 1419 1421 1423 1426 1428 1430 1431 1434 1438 1442 1442 1442 1444 1447 1449 1451 1453 1455 1456 1458 1459 1460 1462 1463 1465 1467 1468 1469 1471 1472 1473 1474 1475 1476 1477 1478 1479 1479 1480 1481 1482 1483 1484 1485 1486 1486 1487 1487 1488 1488 1488 1488 1488 1488 1488 1489 1489
1393 1393 1392 1393 1395 1395 1394 1395 1397 1399 1399 1400 1401 1401 1402 1402 1402 1401 1402 1402 1403 1404 1405 1406 1407 1408 1409 1411 1413 1416 1418 1420 1423 1425 1426 1428 1431 1434 1437 1438 1439 1441 1444 1446 1448 1450 1452 1453 1455 1456 1458 1459 1461 1462 1464 1465 1467 1468 1469 1471 1472 1472 1473 1474 1475 1476 1477 1478 1479 1479 1480 1482 1483 1484 1484 1485 1485 1486 1486 1486 1487 1487 1487 1487 1487 1487
1389 1388 1387 1388 1390 1390 1389 1391 1392 1394 1395 1397 1397 1398 1398 1399 1399 1398 1398 1399 1400 1400 1401 1402 1403 1404 1406 1407 1409 1412 1414 1416 1418 1421 1422 1423 1427 1431 1433 1434 1436 1438 1440 1443 1445 1447 1449 1451 1452 1453 1455 1456 1458 1459 1461 1463 1464 1465 1467 1468 1469 1469 1470 1472 1473 1474 1475 1476 1477 1478 1478 1479 1481 1482 1483 1483 1483 1484 1484 1484 1485 1485 1485 1485 1486 1486
1384 1383 1382 1384 1386 1385 1384 1386 1388 1389 1391 1393 1393 1393 1394 1394 1395 1395 1396 1396 1397 1397 1397 1398 1399 1401 1402 1403 1405 1408 1410 1412 1414 1416 1417 1419 1423 1427 1429 1431 1433 1435 1437 1439 1442 1444 1446 1448 1449 1451 1452 1453 1455 1457 1458 1460 1461 1462 1464 1465 1466 1467 1468 1469 1471 1472 1473 1474 1475 1475 1476 1477 1478 1480 1480 1481 1481 1482 1482 1483 1483 1483 1483 1483 1484 1484
1379 1379 1378 1381 1382 1381 1381 1382 1383 1385 1387 1388 1388 1388 1389 1390 1391 1392 1393 1393 1393 1393 1393 1394 1395 1397 1398 1399 1401 1404 1406 1408 1410 1411 1412 1415 1419 1423 1426 1428 1430 1432 1433 1435 1438 1440 1443 1444 1446 1448 1449 1450 1452 1453 1455 1457 1458 1460 1461 1463 1463 1464 1466 1467 1468 1469 1471 1472 1473 1473 1474 1475 1476 1478 1478 1479 1479 1480 1480 1481 1481 1481 1482 1482 1482 1483
1375 1375 1376 1377 1377 1378 1378 1378 1379 1381 1383 1383 1384 1384 1385 1386 1388 1388 1389 1389 1390 1390 1391 1391 1392 1393 1394 1396 1398 1400 1403 1405 1406 1407 1408 1412 1416 1420 1422 1424 1427 1429 1430 1432 1434 1437 1439 1441 1443 1444 1446 1447 1449 1451 1453 1454 1456 1457 1458 1460 1461 1462 1463 1464 1466 1467 1468 1469 1470 1471 1472 1473 1474 1475 1476 1477 1478 1478 1478 1478 1479 1479 1480 1480 1481 1481
1370 1371 1373 1373 1373 1373 1374 1373 1374 1376 1378 1379 1380 1381 1382 1383 1384 1385 1385 1386 1387 1388 1388 1389 1389 1390 1391 1393 1394 1397 1399 1401 1402 1403 1405 1409 1413 1416 1419 1421 1424 1426 1427 1429 1432 1434 1436 1438 1439 1441 1443 1444 1446 1448 1449 1451 1453 1454 1456 1457 1458 1459 1460 1462 1463 1464 1466 1467 1468 1469 1470 1471 1472 1473 1474 1475 1476 1476 1476 1477 1477 1478 1478 1478 1479 1479
1366 1366 1368 1368 1368 1369 1369 1369 1369 1371 1374 1375 1377 1378 1379 1380 1381 1382 1383 1383 1383 1384 1385 1386 1386 1387 1387 1389 1391 1393 1395 1397 1398 1399 1402 1406 1409 1413 1415 1418 1420 1423 1424 1427 1428 1431 1433 1434 1436 1438 1439 1441 1443 1444 1446 1448 1450 1451 1453 1454 1455 1457 1458 1459 1460 1462 1463 1465 1466 1467 1468 1468 1469 1471 1472 1473 1473 1474 1474 1475 1475 1476 1476 1477 1477 1478
1360 1361 1362 1362 1363 1363 1364 1364 1364 1367 1370 1372 1373 1374 1375 1376 1377 1378 1379 1378 1378 1379 1381 1382 1383 1383 1384 1386 1388 1390 1392 1393 1394 1396 1398 1402 1405 1408 1412 1414 1417 1419 1421 1423 1425 1427 1429 1431 1433 1434 1436 1437 1439 1441 1443 1445 1447 1448 1450 1451 1453 1454 1455 1457 1458 1459 1461 1462 1463 1464 1465 1466 1467 1468 1470 1471 1471 1472 1473 1473 1473 1474 1474 1475 1476 1476
1354 1356 1357 1357 1357 1358 1358 1358 1360 1362 1365 1367 1368 1369 1371 1371 1372 1373 1373 1373 1373 1375 1376 1377 1378 1380 1382 1383 1384 1386 1388 1390 1392 1393 1396 1398 1402 1405 1408 1411 1413 1416 1418 1420 1422 1424 1426 1428 1429 1431 1432 1434 1436 1437 1439 1441 1443 1445 1447 1448 1450 1451 1453 1454 1455 1457 1458 1459 1460 1462 1463 1464 1465 1466 1467 1468 1469 1470 1470 1471 1471 1472 1473 1473 1474 1475
1348 1350 1352 1352 1352 1352 1352 1353 1356 1358 1360 1362 1363 1364 1364 1365 1366 1367 1367 1367 1368 1369 1370 1372 1373 1376 1378 1379 1381 1383 1385 1386 1388 1389 1392 1395 1398 1402 1405 1408 1410 1413 1415 1417 1419 1420 1422 1424 1426 1427 1429 1430 1432 1433 1435 1438 1440 1442 1443 1445 1447 1448 1450 1451 1453 1454 1455 1456 1458 1458 1460 1461 1463 1464 1465 1466 1467 1468 1468 1469 1469 1470 1471 1472 1473 1473
1342 1343 1345 1346 1346 1346 1346 1348 1351 1353 1354 1354 1355 1356 1356 1358 1360 1362 1362 1362 1363 1364 1365 1367 1369 1371 1373 1375 1377 1379 1381 1382 1383 1386 1388 1391 1394 1397 1400 1403 1405 1408 1411 1413 1415 1416 1418 1420 1422 1424 1425 1427 1428 1430 1432 1434 1436 1438 1440 1442 1443 1445 1447 1448 1450 1451 1452 1453 1454 1456 1457 1458 1460 1461 1463 1464 1465 1466 1466 1467 1468 1468 1469 1470 1471 1472
1337 1337 1339 1339 1340 1340 1340 1343 1345 1346 1346 1346 1347 1349 1351 1353 1356 1357 1357 1358 1359 1360 1362 1364 1365 1366 1368 1370 1373 1374 1377 1378 1380 1382 1384 1386 1388 1391 1394 1397 1400 1403 1406 1408 1410 1411 1413 1416 1418 1420 1422 1423 1425 1426 1428 1430 1432 1434 1436 1438 1440 1442 1443 1445 1447 1448 1449 1450 1451 1453 1454 1456 1458 1459 1460 1461 1463 1463 1464 1465 1466 1467 1467 1468 1469 1470
1333 1331 1331 1332 1333 1334 1335 1336 1338 1338 1339 1340 1343 1346 1349 1351 1352 1352 1353 1354 1355 1357 1359 1361 1362 1363 1364 1366 1367 1369 1372 1375 1377 1378 1380 1382 1384 1387 1390 1393 1395 1398 1401 1404 1405 1407 1409 1412 1414 1415 1418 1419 1421 1423 1425 1427 1428 1430 1433 1434 1437 1438 1440 1442 1443 1445 1446 1447 1449 1450 1452 1453 1455 1456 1458 1459 1460 1461 1462 1463 1464 1465 1465 1467 1468 1468
1331 1327 1324 1324 1326 1328 1329 1330 1331 1332 1333 1336 1339 1342 1344 1345 1345 1345 1347 1349 1351 1353 1355 1357 1359 1360 1361 1361 1363 1365 1368 1370 1372 1373 1376 1378 1380 1383 1386 1389 1392 1394 1397 1399 1401 1403 1406 1408 1409 1411 1413 1415 1417 1419 1421 1423 1425 1427 1429 1431 1433 1435 1437 1439 1441 1442 1443 1445 1447 1448 1449 1451 1453 1454 1455 1456 1458 1458 1460 1461 1462 1463 1464 1465 1466 1467
1328 1324 1319 1318 1319 1321 1323 1324 1325 1326 1328 1331 1334 1336 1338 1339 1340 1341 1343 1345 1348 1349 1351 1352 1354 1356 1356 1357 1358 1360 1362 1365 1368 1370 1372 1374 1375 1378 1381 1384 1387 1390 1392 1395 1397 1399 1402 1403 1405 1407 1408 1411 1413 1416 1418 1420 1422 1424 1426 1428 1430 1433 1434 1436 1438 1439 1441 1443 1444 1446 1448 1449 1450 1452 1453 1454 1455 1456 1457 1458 1460 1461 1462 1463 1464 1465
1325 1322 1318 1314 1313 1314 1317 1318 1319 1320 1324 1327 1328 1330 1333 1335 1337 1338 1339 1341 1343 1345 1346 1348 1349 1350 1351 1353 1353 1354 1357 1361 1364 1366 1368 1370 1371 1373 1377 1380 1383 1385 1388 1391 1393 1395 1397 1399 1401 1403 1404 1407 1410 1413 1415 1417 1419 1421 1423 1426 1428 1430 1432 1433 1435 1437 1438 1440 1442 1444 1445 1447 1448 1449 1450 1452 1453 1454 1455 1456 1458 1459 1460 1461 1462 1463
1321 1319 1317 1312 1308 1308 1311 1312 1312 1314 1318 1321 1323 1326 1330 1332 1333 1334 1336 1337 1339 1340 1341 1343 1344 1345 1347 1347 1347 1348 1352 1357 1360 1363 1365 1366 1367 1370 1373 1376 1379 1382 1385 1387 1389 1392 1393 1395 1397 1399 1401 1404 1407 1409 1412 1414 1417 1418 1420 1423 1425 1427 1429 1430 1432 1434 1436 1438 1439 1441 1443 1445 1446 1447 1448 1449 1450 1452 1453 1454 1456 1457 1458 1459 1460 1461
1317 1316 1314 1310 1306 1305 1305 1304 1305 1307 1310 1314 1317 1321 1324 1326 1328 1330 1332 1334 1335 1336 1337 1338 1340 1341 1342 1343 1344 1345 1348 1353 1357 1360 1361 1362 1364 1366 1369 1372 1375 1378 1381 1383 1386 1388 1390 1392 1394 1397 1399 1401 1404 1407 1409 1412 1414 1416 1418 1420 1422 1424 1426 1428 1429 1431 1433 1434 1436 1438 1440 1442 1443 1444 1446 1447 1448 1449 1451 1452 1453 1455 1456 1457 1458 1460
1312 1310 1309 1308 1306 1302 1298 1298 1298 1301 1304 1309 1313 1316 1318 1321 1323 1325 1327 1329 1331 1332 1334 1335 1335 1336 1338 1340 1341 1341 1344 1348 1353 1356 1358 1360 1361 1363 1365 1368 1371 1374 1377 1379 1382 1384 1387 1389 1391 1393 1396 1398 1401 1403 1406 1408 1411 1413 1415 1417 1419 1421 1423 1425 1427 1428 1430 1431 1433 1435 1438 1439 1441 1442 1443 1444 1445 1447 1448 1449 1451 1452 1454 1455 1457 1458
1308 1304 1303 1305 1303 1298 1293 1293 1293 1296 1299 1304 1307 1309 1312 1315 1318 1320 1322 1324 1326 1327 1328 1329 1330 1332 1335 1337 1337 1337 1340 1344 1348 1352 1355 1357 1358 1358 1361 1364 1367 1370 1373 1376 1378 1381 1383 1386 1388 1390 1392 1395 1398 1400 1403 1405 1408 1410 1412 1414 1416 1418 1420 1422 1424 1425 1427 1429 1430 1432 1434 1436 1438 1439 1441 1442 1443 1444 1446 1447 1448 1450 1452 1453 1454 1456
1303 1300 1299 1300 1299 1295 1291 1290 1290 1292 1295 1298 1300 1302 1305 1309 1312 1314 1317 1319 1320 1321 1323 1325 1328 1332 1334 1334 1334 1335 1338 1340 1344 1348 1352 1353 1353 1354 1357 1360 1363 1367 1369 1372 1375 1378 1380 1383 1385 1387 1389 1392 1394 1397 1400 1402 1404 1407 1409 1411 1413 1415 1417 1419 1421 1423 1424 1426 1428 1429 1431 1433 1435 1437 1438 1439 1441 1442 1443 1445 1446 1448 1449 1451 1453 1454
1296 1295 1294 1294 1293 1292 1290 1287 1286 1288 1290 1293 1294 1297 1301 1304 1307 1310 1313 1314 1316 1318 1321 1325 1329 1331 1331 1331 1331 1333 1335 1337 1341 1346 1348 1348 1349 1350 1353 1357 1360 1363 1365 1368 1371 1374 1377 1380 1382 1384 1386 1388 1391 1393 1396 1399 1401 1403 1406 1408 1410 1412 1414 1416 1418 1420 1422 1423 1425 1427 1428 1430 1432 1434 1435 1437 1438 1440 1441 1443 1444 1446 1448 1449 1451 1452
1289 1288 1288 1288 1288 1288 1287 1283 1282 1283 1285 1288 1291 1294 1297 1300 1303 1307 1309 1311 1314 1317 1320 1323 1325 1325 1325 1326 1328 1330 1331 1333 1337 1341 1344 1346 1347 1348 1350 1353 1356 1359 1362 1365 1368 1371 1374 1377 1379 1382 1384 1386 1388 1390 1393 1395 1398 1400 1403 1405 1407 1409 1411 1413 1415 1417 1419 1420 1422 1423 1425 1427 1429 1431 1433 1434 1436 1438 1439 1441 1442 1444 1446 1447 1449 1450
1283 1281 1281 1282 1283 1284 1283 1280 1278 1278 1281 1284 1287 1290 1293 1297 1300 1303 1305 1307 1308 1311 1314 1317 1318 1319 1320 1322 1324 1326 1327 1330 1333 1336 1340 1342 1343 1345 1347 1350 1353 1356 1359 1362 1365 1369 1372 1375 1377 1379 1381 1383 1385 1387 1389 1392 1395 1397 1399 1402 1404 1406 1408 1410 1412 1414 1415 1417 1418 1420 1422 1424 1426 1428 1430 1432 1433 1435 1437 1438 1440 1442 1444 1446 1447 1448
1276 1275 1274 1274 1275 1277 1278 1278 1276 1275 1276 1279 1282 1285 1289 1293 1297 1298 1299 1299 1300 1303 1307 1310 1313 1315 1317 1319 1320 1321 1323 1326 1329 1333 1336 1339 1340 1341 1343 1347 1350 1353 1356 1359 1363 1366 1369 1372 1374 1376 1378 1379 1382 1385 1387 1389 1392 1394 1396 1398 1401 1403 1405 1407 1409 1410 1412 1413 1415 1417 1419 1421 1423 1425 1427 1429 1431 1433 1434 1436 1438 1440 1442 1444 1445 1447
1269 1268 1268 1268 1268 1270 1272 1273 1272 1271 1272 1274 1278 1281 1285 1289 1292 1293 1292 1293 1295 1299 1302 1305 1308 1310 1312 1313 1314 1316 1319 1322 1324 1328 1333 1336 1338 1338 1339 1343 1346 1350 1353 1357 1360 1364 1367 1369 1371 1373 1375 1377 1379 1382 1384 1387 1389 1391 1393 1396 1398 1400 1402 1404 1406 1407 1409 1410 1412 1414 1416 1418 1420 1423 1424 1427 1428 1430 1432 1434 1436 1438 1440 1442 1443 1444
1263 1263 1262 1262 1263 1264 1267 1268 1268 1266 1267 1270 1274 1277 1280 1284 1286 1288 1288 1291 1293 1296 1298 1300 1303 1305 1307 1309 1311 1314 1316 1318 1320 1324 1329 1333 1334 1335 1336 1339 1342 1345 1349 1353 1358 1362 1365 1366 1368 1370 1372 1374 1376 1379 1382 1384 1387 1389 1391 1393 1396 1398 1399 1401 1403 1404 1406 1407 1409 1410 1413 1415 1418 1420 1422 1424 1426 1428 1430 1432 1434 1436 1438 1439 1441 1442
1258 1257 1256 1256 1257 1258 1261 1263 1263 1262 1263 1266 1269 1273 1276 1279 1282 1285 1289 1291 1292 1293 1294 1297 1299 1302 1304 1307 1310 1312 1313 1314 1316 1321 1325 1329 1331 1331 1333 1335 1338 1340 1344 1349 1355 1359 1361 1362 1364 1366 1368 1371 1373 1376 1379 1382 1384 1386 1388 1391 1394 1396 1397 1398 1400 1402 1403 1404 1406 1408 1410 1413 1415 1417 1419 1421 1423 1425 1428 1430 1431 1433 1435 1437 1438 1440
1251 1250 1249 1249 1251 1253 1255 1257 1258 1258 1259 1262 1265 1268 1271 1274 1278 1282 1286 1288 1289 1290 1293 1295 1296 1298 1300 1303 1305 1307 1307 1308 1312 1317 1321 1325 1326 1327 1328 1331 1333 1336 1339 1344 1349 1354 1357 1359 1361 1363 1365 1368 1370 1373 1375 1378 1380 1382 1385 1388 1391 1393 1394 1396 1398 1399 1400 1401 1403 1405 1407 1410 1412 1414 1416 1418 1421 1423 1425 1427 1429 1431 1433 1434 1437 1438
1246 1245 1244 1244 1246 1248 1249 1251 1252 1253 1255 1258 1260 1263 1266 1269 1273 1277 1280 1283 1285 1288 1292 1293 1293 1294 1295 1297 1298 1300 1302 1304 1308 1312 1317 1321 1323 1324 1325 1327 1330 1333 1336 1340 1343 1348 1352 1354 1357 1359 1362 1364 1367 1369 1372 1374 1376 1378 1381 1384 1386 1389 1392 1394 1397 1398 1399 1400 1401 1403 1405 1408 1410 1412 1414 1416 1418 1420 1422 1424 1426 1428 1430 1432 1434 1436
1242 1240 1239 1239 1241 1243 1243 1244 1246 1248 1250 1253 1255 1258 1261 1264 1268 1271 1274 1277 1280 1283 1287 1289 1290 1291 1291 1293 1295 1297 1299 1301 1303 1307 1313 1317 1320 1322 1323 1325 1328 1330 1334 1338 1342 1345 1348 1350 1353 1356 1359 1361 1363 1366 1368 1371 1373 1375 1377 1380 1382 1385 1388 1392 1395 1397 1398 1399 1400 1402 1404 1406 1408 1410 1412 1413 1416 1418 1420 1422 1424 1426 1428 1430 1432 1434
1237 1235 1235 1235 1236 1238 1238 1238 1240 1242 1245 1247 1249 1253 1256 1259 1263 1267 1269 1272 1274 1277 1281 1284 1285 1286 1287 1289 1292 1295 1297 1297 1299 1303 1308 1313 1316 1318 1320 1322 1325 1328 1332 1336 1340 1344 1346 1347 1349 1353 1357 1359 1362 1363 1365 1368 1369 1372 1374 1376 1378 1382 1385 1388 1391 1394 1395 1397 1398 1400 1402 1404 1407 1408 1410 1412 1413 1416 1418 1420 1423 1425 1427 1429 1431 1433
1232 1230 1230 1230 1231 1232 1233 1233 1234 1236 1239 1242 1244 1247 1251 1255 1258 1262 1265 1267 1269 1272 1275 1278 1280 1280 1281 1284 1287 1291 1293 1293 1295 1299 1304 1308 1311 1314 1317 1319 1321 1323 1328 1331 1335 1339 1341 1343 1346 1349 1353 1357 1359 1361 1363 1364 1367 1369 1371 1373 1375 1378 1381 1384 1387 1390 1392 1394 1395 1397 1399 1402 1404 1406 1408 1410 1412 1414 1416 1419 1421 1423 1425 1428 1429 1431
1227 1225 1225 1225 1226 1227 1227 1227 1228 1230 1234 1236 1239 1242 1246 1250 1253 1257 1260 1263 1265 1267 1271 1274 1276 1277 1277 1279 1282 1285 1288 1288 1291 1295 1300 1304 1307 1310 1313 1314 1316 1319 1323 1327 1330 1333 1336 1338 1342 1345 1349 1353 1356 1358 1360 1362 1364 1367 1368 1371 1373 1375 1378 1381 1383 1386 1388 1390 1392 1393 1396 1398 1400 1403 1405 1407 1409 1412 1415 1417 1420 1422 1424 1426 1428 1430
1222 1220 1219 1220 1221 1222 1222 1221 1222 1224 1228 1231 1234 1237 1241 1245 1249 1253 1256 1258 1260 1263 1266 1270 1273 1274 1275 1277 1279 1282 1284 1285 1288 1292 1296 1300 1304 1307 1308 1310 1312 1315 1318 1321 1325 1328 1332 1335 1339 1343 1347 1348 1350 1353 1356 1359 1362 1364 1365 1367 1370 1373 1375 1378 1381 1383 1385 1386 1388 1390 1392 1394 1397 1400 1403 1405 1408 1411 1413 1416 1418 1420 1422 1424 1426 1428
1217 1215 1214 1215 1216 1217 1217 1216 1217 1218 1221 1225 1228 1232 1236 1240 1244 1248 1251 1254 1256 1259 1262 1266 1269 1272 1273 1275 1278 1280 1282 1283 1285 1289 1293 1297 1300 1303 1304 1307 1309 1311 1314 1317 1320 1323 1328 1331 1335 1339 1343 1344 1346 1348 1350 1354 1357 1360 1362 1364 1367 1369 1372 1375 1378 1380 1382 1384 1385 1387 1389 1392 1394 1397 1400 1403 1405 1408 1411 1414 1416 1418 1420 1422 1424 1426
1212 1211 1210 1210 1211 1212 1212 1211 1211 1212 1215 1219 1223 1227 1231 1236 1240 1244 1247 1250 1252 1255 1259 1262 1266 1268 1270 1273 1275 1278 1279 1281 1283 1287 1290 1293 1296 1298 1301 1303 1305 1308 1311 1314 1318 1320 1323 1326 1329 1332 1336 1340 1343 1345 1348 1350 1352 1355 1358 1362 1366 1368 1370 1373 1375 1378 1380 1382 1383 1385 1387 1389 1392 1394 1397 1399 1402 1404 1408 1410 1413 1415 1417 1419 1421 1423
1208 1207 1206 1206 1207 1208 1208 1206 1206 1208 1211 1215 1219 1224 1229 1233 1238 1241 1244 1246 1249 1253 1256 1260 1263 1266 1268 1270 1273 1274 1275 1277 1280 1284 1287 1290 1292 1294 1297 1298 1301 1304 1308 1312 1315 1318 1320 1323 1326 1328 1331 1334 1337 1341 1344 1347 1348 1350 1353 1358 1362 1365 1367 1370 1373 1375 1378 1379 1381 1382 1384 1387 1389 1392 1394 1396 1398 1401 1404 1407 1409 1411 1414 1416 1418 1420
1205 1203 1202 1202 1203 1204 1205 1204 1203 1205 1208 1212 1217 1221 1225 1229 1233 1237 1241 1244 1247 1251 1255 1258 1261 1263 1266 1268 1269 1271 1273 1275 1278 1281 1283 1286 1288 1291 1293 1295 1298 1301 1305 1308 1311 1314 1317 1320 1323 1326 1328 1330 1333 1336 1339 1342 1344 1346 1348 1351 1353 1356 1360 1365 1369 1372 1375 1377 1379 1380 1382 1384 1387 1389 1392 1394 1396 1399 1402 1405 1408 1410 1412 1414 1417 1418
1201 1200 1199 1198 1199 1201 1202 1202 1201 1203 1205 1209 1213 1216 1220 1224 1228 1232 1236 1240 1243 1247 1251 1254 1257 1259 1262 1264 1267 1268 1270 1272 1274 1277 1280 1283 1285 1288 1290 1293 1295 1298 1302 1305 1308 1312 1314 1317 1320 1322 1324 1326 1329 1333 1336 1338 1340 1343 1346 1347 1348 1352 1357 1362 1365 1368 1372 1375 1377 1379 1381 1383 1385 1387 1389 1392 1395 1399 1402 1405 1408 1409 1412 1414 1416 1418
1195 1195 1195 1195 1196 1198 1199 1199 1199 1199 1202 1205 1208 1212 1215 1219 1223 1227 1231 1235 1239 1242 1246 1248 1251 1254 1257 1260 1263 1266 1268 1270 1273 1275 1277 1280 1283 1285 1288 1290 1293 1296 1299 1302 1306 1309 1312 1314 1317 1318 1319 1321 1324 1328 1331 1334 1338 1341 1344 1344 1345 1348 1354 1357 1361 1364 1368 1371 1374 1377 1379 1381 1383 1385 1387 1390 1394 1398 1401 1404 1407 1409 1411 1413 1414 1417
1191 1190 1191 1192 1193 1194 1195 1195 1194 1195 1198 1201 1205 1208 1212 1216 1219 1224 1228 1232 1236 1239 1242 1245 1248 1251 1254 1257 1260 1263 1266 1268 1271 1273 1275 1278 1281 1283 1286 1288 1290 1293 1295 1298 1302 1305 1309 1312 1314 1315 1316 1318 1321 1324 1327 1329 1333 1337 1339 1341 1342 1343 1344 1347 1352 1358 1364 1368 1372 1374 1377 1378 1380 1383 1386 1389 1393 1397 1400 1402 1405 1407 1409 1411 1413 1415
1187 1186 1186 1187 1188 1188 1189 1189 1189 1190 1194 1197 1201 1205 1209 1213 1217 1221 1225 1229 1233 1236 1238 1241 1245 1248 1252 1254 1257 1260 1263 1266 1268 1271 1274 1277 1279 1282 1284 1286 1288 1290 1293 1295 1297 1300 1303 1306 1309 1311 1313 1316 1319 1321 1323 1326 1329 1332 1336 1339 1341 1343 1343 1344 1348 1353 1358 1364 1368 1372 1374 1376 1378 1381 1384 1388 1392 1395 1398 1400 1403 1405 1407 1409 1411 1413
1183 1182 1182 1183 1183 1183 1183 1182 1184 1187 1191 1195 1198 1202 1206 1210 1214 1218 1222 1225 1228 1232 1235 1238 1241 1244 1247 1249 1253 1256 1259 1263 1265 1268 1271 1274 1277 1280 1282 1284 1286 1288 1291 1293 1295 1297 1298 1300 1302 1306 1310 1314 1317 1318 1320 1322 1325 1328 1332 1336 1339 1342 1344 1346 1348 1351 1354 1359 1364 1368 1371 1374 1376 1379 1383 1386 1390 1393 1396 1399 1401 1403 1405 1407 1409 1411
1180 1178 1178 1178 1178 1178 1177 1178 1181 1184 1188 1192 1195 1199 1203 1207 1211 1215 1219 1222 1225 1228 1232 1236 1239 1241 1243 1246 1249 1252 1255 1258 1261 1264 1267 1270 1273 1276 1279 1282 1284 1287 1290 1292 1294 1296 1297 1298 1299 1302 1305 1309 1313 1316 1318 1320 1322 1324 1327 1330 1334 1338 1341 1344 1346 1349 1352 1356 1360 1364 1368 1371 1375 1378 1381 1385 1388 1391 1394 1397 1399 1401 1403 1405 1407 1409
1176 1174 1174 1175 1175 1174 1173 1174 1177 1181 1185 1189 1193 1197 1200 1203 1208 1212 1215 1219 1222 1225 1229 1233 1236 1238 1241 1243 1245 1248 1251 1254 1257 1260 1263 1266 1269 1272 1275 1278 1282 1285 1288 1290 1292 1293 1295 1298 1300 1301 1303 1304 1307 1311 1315 1318 1320 1321 1322 1325 1329 1333 1337 1340 1344 1348 1351 1354 1358 1361 1364 1368 1371 1374 1378 1382 1386 1389 1392 1394 1397 1399 1401 1403 1405 1407
1174 1172 1170 1172 1173 1171 1169 1170 1173 1177 1182 1185 1190 1194 1198 1201 1204 1208 1211 1215 1218 1222 1225 1228 1231 1235 1238 1240 1242 1245 1248 1251 1254 1257 1259 1262 1265 1268 1272 1275 1278 1282 1284 1287 1289 1291 1293 1296 1298 1302 1304 1305 1305 1307 1310 1313 1317 1319 1321 1323 1326 1330 1333 1338 1342 1346 1349 1353 1356 1359 1362 1365 1368 1371 1375 1379 1383 1386 1389 1392 1394 1397 1399 1401 1403 1405
1173 1170 1168 1168 1170 1170 1167 1168 1170 1174 1178 1182 1186 1190 1194 1198 1202 1205 1208 1212 1215 1218 1221 1224 1227 1230 1233 1236 1238 1242 1245 1248 1251 1253 1256 1258 1261 1264 1268 1271 1275 1278 1282 1284 1287 1290 1292 1295 1297 1300 1303 1306 1307 1306 1306 1309 1313 1317 1321 1324 1326 1328 1331 1335 1340 1344 1347 1350 1353 1357 1361 1364 1368 1371 1374 1377 1380 1383 1387 1390 1392 1394 1397 1399 1401 1403
1173 1170 1168 1166 1167 1169 1168 1167 1168 1171 1175 1179 1183 1187 1191 1195 1199 1203 1206 1209 1212 1215 1218 1221 1223 1226 1229 1232 1235 1238 1240 1243 1246 1249 1252 1254 1257 1260 1263 1267 1270 1274 1278 1282 1285 1288 1290 1294 1298 1301 1304 1306 1307 1308 1307 1306 1308 1313 1319 1322 1324 1326 1329 1333 1338 1341 1345 1348 1351 1355 1359 1363 1367 1370 1373 1376 1379 1382 1385 1388 1390 1393 1395 1397 1399 1401